Year,Month,Day,Hour,Minute,Value (Times are PST for windspeed in km/hr)
2006,12,13,00,00,23.70
2006,12,13,00,01,21.20
2006,12,13,00,02,15.30
2006,12,13,00,03,13.90
2006,12,13,00,04,16.40
2006,12,13,00,05,11.80
2006,12,13,00,06,13.80
2006,12,13,00,07,14.30
2006,12,13,00,08,17.10
2006,12,13,00,09,15.10
2006,12,13,00,10,18.80
2006,12,13,00,11,15.20
2006,12,13,00,12,12.20
2006,12,13,00,13,12.20
2006,12,13,00,14,17.40
2006,12,13,00,15,21.40
2006,12,13,00,16,20.30
2006,12,13,00,17,22.20
2006,12,13,00,18,25.30
2006,12,13,00,19,23.20
2006,12,13,00,20,13.90
2006,12,13,00,21,11.20
2006,12,13,00,22,11.30
2006,12,13,00,23,18.60
2006,12,13,00,24,19.20
2006,12,13,00,25,20.40
2006,12,13,00,26,20.10
2006,12,13,00,27,17.00
2006,12,13,00,28,11.30
2006,12,13,00,29,15.20
2006,12,13,00,30,25.60
2006,12,13,00,31,15.40
2006,12,13,00,32,11.50
2006,12,13,00,33,8.90
2006,12,13,00,34,14.10
2006,12,13,00,35,14.60
2006,12,13,00,36,15.10
2006,12,13,00,37,17.70
2006,12,13,00,38,14.80
2006,12,13,00,39,13.60
2006,12,13,00,40,11.80
2006,12,13,00,41,11.40
2006,12,13,00,42,16.00
2006,12,13,00,43,13.90
2006,12,13,00,44,11.00
2006,12,13,00,45,15.40
2006,12,13,00,46,11.40
2006,12,13,00,47,7.50
2006,12,13,00,48,14.00
2006,12,13,00,49,15.80
2006,12,13,00,50,15.20
2006,12,13,00,51,13.80
2006,12,13,00,52,7.80
2006,12,13,00,53,10.10
2006,12,13,00,54,10.80
2006,12,13,00,55,17.70
2006,12,13,00,56,12.10
2006,12,13,00,57,13.80
2006,12,13,00,58,10.10
2006,12,13,00,59,14.00
2006,12,13,01,00,13.60
2006,12,13,01,01,10.80
2006,12,13,01,02,10.00
2006,12,13,01,03,11.80
2006,12,13,01,04,13.00
2006,12,13,01,05,10.40
2006,12,13,01,06,10.90
2006,12,13,01,07,12.10
2006,12,13,01,08,12.80
2006,12,13,01,09,11.60
2006,12,13,01,10,8.70
2006,12,13,01,11,12.40
2006,12,13,01,12,10.80
2006,12,13,01,13,17.00
2006,12,13,01,14,11.80
2006,12,13,01,15,15.90
2006,12,13,01,16,12.10
2006,12,13,01,17,12.10
2006,12,13,01,18,6.10
2006,12,13,01,19,6.30
2006,12,13,01,20,10.70
2006,12,13,01,21,11.90
2006,12,13,01,22,11.30
2006,12,13,01,23,16.10
2006,12,13,01,24,13.60
2006,12,13,01,25,18.50
2006,12,13,01,26,12.20
2006,12,13,01,27,13.10
2006,12,13,01,28,12.70
2006,12,13,01,29,15.10
2006,12,13,01,30,13.80
2006,12,13,01,31,18.10
2006,12,13,01,32,14.40
2006,12,13,01,33,13.40
2006,12,13,01,34,15.60
2006,12,13,01,35,11.50
2006,12,13,01,36,14.10
2006,12,13,01,37,16.30
2006,12,13,01,38,12.80
2006,12,13,01,39,15.50
2006,12,13,01,40,13.90
2006,12,13,01,41,9.70
2006,12,13,01,42,13.30
2006,12,13,01,43,18.30
2006,12,13,01,44,12.50
2006,12,13,01,45,10.10
2006,12,13,01,46,17.20
2006,12,13,01,47,15.20
2006,12,13,01,48,11.90
2006,12,13,01,49,16.30
2006,12,13,01,50,11.80
2006,12,13,01,51,10.70
2006,12,13,01,52,13.70
2006,12,13,01,53,14.90
2006,12,13,01,54,15.80
2006,12,13,01,55,17.10
2006,12,13,01,56,16.30
2006,12,13,01,57,11.90
2006,12,13,01,58,8.20
2006,12,13,01,59,18.70
2006,12,13,02,00,17.20
2006,12,13,02,01,15.90
2006,12,13,02,02,13.80
2006,12,13,02,03,17.00
2006,12,13,02,04,14.70
2006,12,13,02,05,12.80
2006,12,13,02,06,14.40
2006,12,13,02,07,14.30
2006,12,13,02,08,11.90
2006,12,13,02,09,13.70
2006,12,13,02,10,10.90
2006,12,13,02,11,14.90
2006,12,13,02,12,20.10
2006,12,13,02,13,19.50
2006,12,13,02,14,17.50
2006,12,13,02,15,11.80
2006,12,13,02,16,11.20
2006,12,13,02,17,11.90
2006,12,13,02,18,7.10
2006,12,13,02,19,9.60
2006,12,13,02,20,10.30
2006,12,13,02,21,9.90
2006,12,13,02,22,14.80
2006,12,13,02,23,12.00
2006,12,13,02,24,12.70
2006,12,13,02,25,12.30
2006,12,13,02,26,12.80
2006,12,13,02,27,13.40
2006,12,13,02,28,15.40
2006,12,13,02,29,13.60
2006,12,13,02,30,8.60
2006,12,13,02,31,6.40
2006,12,13,02,32,7.50
2006,12,13,02,33,12.30
2006,12,13,02,34,8.00
2006,12,13,02,35,7.70
2006,12,13,02,36,8.50
2006,12,13,02,37,11.00
2006,12,13,02,38,8.60
2006,12,13,02,39,11.60
2006,12,13,02,40,12.10
2006,12,13,02,41,11.10
2006,12,13,02,42,13.80
2006,12,13,02,43,20.00
2006,12,13,02,44,13.00
2006,12,13,02,45,13.10
2006,12,13,02,46,11.90
2006,12,13,02,47,10.80
2006,12,13,02,48,6.60
2006,12,13,02,49,11.30
2006,12,13,02,50,12.80
2006,12,13,02,51,14.40
2006,12,13,02,52,15.70
2006,12,13,02,53,7.60
2006,12,13,02,54,15.30
2006,12,13,02,55,15.80
2006,12,13,02,56,11.10
2006,12,13,02,57,10.80
2006,12,13,02,58,14.60
2006,12,13,02,59,14.50
2006,12,13,03,00,12.10
2006,12,13,03,01,11.90
2006,12,13,03,02,15.00
2006,12,13,03,03,9.70
2006,12,13,03,04,10.20
2006,12,13,03,05,9.80
2006,12,13,03,06,13.90
2006,12,13,03,07,9.10
2006,12,13,03,08,8.70
2006,12,13,03,09,10.60
2006,12,13,03,10,12.70
2006,12,13,03,11,13.30
2006,12,13,03,12,9.70
2006,12,13,03,13,12.00
2006,12,13,03,14,10.10
2006,12,13,03,15,10.10
2006,12,13,03,16,12.20
2006,12,13,03,17,8.60
2006,12,13,03,18,9.70
2006,12,13,03,19,9.10
2006,12,13,03,20,9.70
2006,12,13,03,21,12.90
2006,12,13,03,22,12.70
2006,12,13,03,23,13.60
2006,12,13,03,24,10.10
2006,12,13,03,25,16.50
2006,12,13,03,26,14.60
2006,12,13,03,27,11.20
2006,12,13,03,28,8.10
2006,12,13,03,29,20.60
2006,12,13,03,30,18.10
2006,12,13,03,31,13.70
2006,12,13,03,32,15.80
2006,12,13,03,33,12.80
2006,12,13,03,34,25.10
2006,12,13,03,35,13.70
2006,12,13,03,36,18.70
2006,12,13,03,37,18.40
2006,12,13,03,38,18.40
2006,12,13,03,39,16.60
2006,12,13,03,40,18.50
2006,12,13,03,41,20.90
2006,12,13,03,42,21.20
2006,12,13,03,43,18.00
2006,12,13,03,44,14.30
2006,12,13,03,45,19.50
2006,12,13,03,46,17.10
2006,12,13,03,47,18.60
2006,12,13,03,48,27.00
2006,12,13,03,49,22.50
2006,12,13,03,50,17.10
2006,12,13,03,51,22.50
2006,12,13,03,52,18.80
2006,12,13,03,53,18.90
2006,12,13,03,54,28.50
2006,12,13,03,55,18.70
2006,12,13,03,56,20.40
2006,12,13,03,57,21.90
2006,12,13,03,58,18.60
2006,12,13,03,59,15.60
2006,12,13,04,00,14.70
2006,12,13,04,01,17.10
2006,12,13,04,02,15.60
2006,12,13,04,03,14.00
2006,12,13,04,04,21.10
2006,12,13,04,05,22.10
2006,12,13,04,06,18.90
2006,12,13,04,07,18.10
2006,12,13,04,08,15.60
2006,12,13,04,09,14.20
2006,12,13,04,10,19.00
2006,12,13,04,11,12.60
2006,12,13,04,12,20.40
2006,12,13,04,13,20.40
2006,12,13,04,14,12.70
2006,12,13,04,15,19.60
2006,12,13,04,16,17.40
2006,12,13,04,17,18.60
2006,12,13,04,18,23.10
2006,12,13,04,19,18.00
2006,12,13,04,20,16.80
2006,12,13,04,21,17.10
2006,12,13,04,22,16.90
2006,12,13,04,23,18.30
2006,12,13,04,24,16.20
2006,12,13,04,25,10.20
2006,12,13,04,26,9.10
2006,12,13,04,27,15.50
2006,12,13,04,28,16.20
2006,12,13,04,29,17.90
2006,12,13,04,30,21.40
2006,12,13,04,31,14.00
2006,12,13,04,32,16.30
2006,12,13,04,33,13.80
2006,12,13,04,34,11.30
2006,12,13,04,35,15.70
2006,12,13,04,36,10.10
2006,12,13,04,37,5.40
2006,12,13,04,38,11.40
2006,12,13,04,39,14.00
2006,12,13,04,40,11.70
2006,12,13,04,41,8.20
2006,12,13,04,42,12.20
2006,12,13,04,43,13.30
2006,12,13,04,44,19.20
2006,12,13,04,45,17.20
2006,12,13,04,46,25.80
2006,12,13,04,47,26.80
2006,12,13,04,48,25.60
2006,12,13,04,49,34.20
2006,12,13,04,50,27.80
2006,12,13,04,51,29.80
2006,12,13,04,52,34.20
2006,12,13,04,53,28.00
2006,12,13,04,54,33.60
2006,12,13,04,55,22.20
2006,12,13,04,56,17.50
2006,12,13,04,57,29.50
2006,12,13,04,58,23.20
2006,12,13,04,59,25.60
2006,12,13,05,00,21.50
2006,12,13,05,01,19.90
2006,12,13,05,02,23.30
2006,12,13,05,03,25.00
2006,12,13,05,04,25.90
2006,12,13,05,05,20.00
2006,12,13,05,06,19.20
2006,12,13,05,07,15.20
2006,12,13,05,08,20.90
2006,12,13,05,09,18.10
2006,12,13,05,10,11.30
2006,12,13,05,11,8.50
2006,12,13,05,12,11.10
2006,12,13,05,13,13.70
2006,12,13,05,14,9.30
2006,12,13,05,15,11.40
2006,12,13,05,16,15.90
2006,12,13,05,17,11.00
2006,12,13,05,18,15.80
2006,12,13,05,19,13.00
2006,12,13,05,20,16.70
2006,12,13,05,21,18.40
2006,12,13,05,22,13.10
2006,12,13,05,23,15.40
2006,12,13,05,24,11.70
2006,12,13,05,25,11.10
2006,12,13,05,26,17.20
2006,12,13,05,27,12.90
2006,12,13,05,28,16.40
2006,12,13,05,29,13.30
2006,12,13,05,30,15.80
2006,12,13,05,31,13.00
2006,12,13,05,32,14.30
2006,12,13,05,33,11.40
2006,12,13,05,34,13.70
2006,12,13,05,35,14.00
2006,12,13,05,36,10.20
2006,12,13,05,37,10.50
2006,12,13,05,38,13.50
2006,12,13,05,39,8.10
2006,12,13,05,40,10.30
2006,12,13,05,41,18.80
2006,12,13,05,42,22.10
2006,12,13,05,43,12.50
2006,12,13,05,44,15.20
2006,12,13,05,45,17.30
2006,12,13,05,46,17.00
2006,12,13,05,47,15.90
2006,12,13,05,48,17.10
2006,12,13,05,49,18.70
2006,12,13,05,50,15.40
2006,12,13,05,51,20.60
2006,12,13,05,52,19.60
2006,12,13,05,53,29.60
2006,12,13,05,54,22.40
2006,12,13,05,55,18.40
2006,12,13,05,56,14.40
2006,12,13,05,57,14.80
2006,12,13,05,58,14.00
2006,12,13,05,59,12.90
2006,12,13,06,00,11.30
2006,12,13,06,01,11.20
2006,12,13,06,02,22.20
2006,12,13,06,03,22.00
2006,12,13,06,04,17.10
2006,12,13,06,05,17.60
2006,12,13,06,06,21.50
2006,12,13,06,07,11.90
2006,12,13,06,08,13.80
2006,12,13,06,09,15.20
2006,12,13,06,10,12.90
2006,12,13,06,11,13.90
2006,12,13,06,12,16.50
2006,12,13,06,13,14.10
2006,12,13,06,14,13.40
2006,12,13,06,15,20.00
2006,12,13,06,16,24.60
2006,12,13,06,17,14.60
2006,12,13,06,18,20.40
2006,12,13,06,19,16.30
2006,12,13,06,20,17.60
2006,12,13,06,21,17.30
2006,12,13,06,22,21.00
2006,12,13,06,23,15.40
2006,12,13,06,24,14.90
2006,12,13,06,25,15.20
2006,12,13,06,26,10.00
2006,12,13,06,27,12.90
2006,12,13,06,28,10.80
2006,12,13,06,29,17.10
2006,12,13,06,30,13.00
2006,12,13,06,31,13.00
2006,12,13,06,32,12.20
2006,12,13,06,33,14.40
2006,12,13,06,34,11.40
2006,12,13,06,35,14.90
2006,12,13,06,36,16.00
2006,12,13,06,37,14.60
2006,12,13,06,38,18.50
2006,12,13,06,39,19.60
2006,12,13,06,40,18.60
2006,12,13,06,41,19.90
2006,12,13,06,42,18.50
2006,12,13,06,43,24.00
2006,12,13,06,44,22.10
2006,12,13,06,45,24.60
2006,12,13,06,46,21.20
2006,12,13,06,47,23.00
2006,12,13,06,48,25.50
2006,12,13,06,49,24.40
2006,12,13,06,50,19.50
2006,12,13,06,51,23.20
2006,12,13,06,52,24.80
2006,12,13,06,55,33.30
2006,12,13,06,56,23.00
2006,12,13,06,57,40.20
2006,12,13,06,58,35.40
2006,12,13,06,59,28.40
2006,12,13,07,00,29.70
2006,12,13,07,01,29.90
2006,12,13,07,02,30.20
2006,12,13,07,03,32.40
2006,12,13,07,04,25.30
2006,12,13,07,05,24.10
2006,12,13,07,06,25.30
2006,12,13,07,07,16.30
2006,12,13,07,08,24.50
2006,12,13,07,09,23.30
2006,12,13,07,10,15.50
2006,12,13,07,11,14.10
2006,12,13,07,12,16.90
2006,12,13,07,13,12.00
2006,12,13,07,14,10.80
2006,12,13,07,15,11.50
2006,12,13,07,16,13.60
2006,12,13,07,17,14.20
2006,12,13,07,18,17.30
2006,12,13,07,19,14.00
2006,12,13,07,20,21.00
2006,12,13,07,21,26.30
2006,12,13,07,22,20.80
2006,12,13,07,23,20.60
2006,12,13,07,24,20.10
2006,12,13,07,25,24.00
2006,12,13,07,26,19.40
2006,12,13,07,27,25.30
2006,12,13,07,28,27.00
2006,12,13,07,29,35.90
2006,12,13,07,30,35.60
2006,12,13,07,31,26.00
2006,12,13,07,32,29.00
2006,12,13,07,33,18.00
2006,12,13,07,34,31.20
2006,12,13,07,35,28.20
2006,12,13,07,36,28.20
2006,12,13,07,37,19.10
2006,12,13,07,38,28.50
2006,12,13,07,39,18.70
2006,12,13,07,40,22.60
2006,12,13,07,41,20.40
2006,12,13,07,42,22.90
2006,12,13,07,43,24.40
2006,12,13,07,44,20.40
2006,12,13,07,45,19.20
2006,12,13,07,46,24.90
2006,12,13,07,47,25.00
2006,12,13,07,48,31.70
2006,12,13,07,49,22.90
2006,12,13,07,50,28.50
2006,12,13,07,51,23.90
2006,12,13,07,52,23.90
2006,12,13,07,53,27.90
2006,12,13,07,54,20.60
2006,12,13,07,55,36.90
2006,12,13,07,56,29.30
2006,12,13,07,57,30.10
2006,12,13,07,58,30.80
2006,12,13,07,59,27.80
2006,12,13,08,00,19.20
2006,12,13,08,01,29.40
2006,12,13,08,02,23.70
2006,12,13,08,03,31.20
2006,12,13,08,04,22.50
2006,12,13,08,05,25.30
2006,12,13,08,06,17.70
2006,12,13,08,07,25.70
2006,12,13,08,08,26.30
2006,12,13,08,09,20.90
2006,12,13,08,10,23.80
2006,12,13,08,11,46.70
2006,12,13,08,12,30.40
2006,12,13,08,13,25.20
2006,12,13,08,14,23.50
2006,12,13,08,15,29.90
2006,12,13,08,16,28.80
2006,12,13,08,17,40.30
2006,12,13,08,18,32.80
2006,12,13,08,19,38.70
2006,12,13,08,20,39.20
2006,12,13,08,21,30.30
2006,12,13,08,22,30.40
2006,12,13,08,23,30.10
2006,12,13,08,24,30.40
2006,12,13,08,25,24.60
2006,12,13,08,26,24.50
2006,12,13,08,27,30.80
2006,12,13,08,28,36.80
2006,12,13,08,29,31.20
2006,12,13,08,30,30.90
2006,12,13,08,31,32.50
2006,12,13,08,32,31.20
2006,12,13,08,33,23.60
2006,12,13,08,34,20.90
2006,12,13,08,35,21.00
2006,12,13,08,36,24.40
2006,12,13,08,37,30.70
2006,12,13,08,38,28.00
2006,12,13,08,39,30.40
2006,12,13,08,40,24.90
2006,12,13,08,41,26.40
2006,12,13,08,42,25.70
2006,12,13,08,43,25.20
2006,12,13,08,44,22.90
2006,12,13,08,45,24.30
2006,12,13,08,46,26.90
2006,12,13,08,47,35.10
2006,12,13,08,48,33.80
2006,12,13,08,49,27.80
2006,12,13,08,50,21.80
2006,12,13,08,51,21.80
2006,12,13,08,52,17.10
2006,12,13,08,53,21.20
2006,12,13,08,54,22.90
2006,12,13,08,55,30.80
2006,12,13,08,56,29.60
2006,12,13,08,57,31.00
2006,12,13,08,58,28.50
2006,12,13,08,59,25.40
2006,12,13,09,00,32.30
2006,12,13,09,01,23.20
2006,12,13,09,02,29.10
2006,12,13,09,03,29.20
2006,12,13,09,04,22.50
2006,12,13,09,05,31.10
2006,12,13,09,06,32.80
2006,12,13,09,07,36.80
2006,12,13,09,08,21.90
2006,12,13,09,09,29.90
2006,12,13,09,10,30.70
2006,12,13,09,11,25.20
2006,12,13,09,12,31.00
2006,12,13,09,13,29.30
2006,12,13,09,14,24.20
2006,12,13,09,15,30.70
2006,12,13,09,16,36.60
2006,12,13,09,17,34.40
2006,12,13,09,18,33.70
2006,12,13,09,19,29.40
2006,12,13,09,20,25.20
2006,12,13,09,21,39.10
2006,12,13,09,22,41.00
2006,12,13,09,23,33.60
2006,12,13,09,24,40.30
2006,12,13,09,25,32.80
2006,12,13,09,26,30.70
2006,12,13,09,27,34.10
2006,12,13,09,28,27.00
2006,12,13,09,29,29.30
2006,12,13,09,30,32.40
2006,12,13,09,31,25.90
2006,12,13,09,32,22.10
2006,12,13,09,33,22.60
2006,12,13,09,34,26.00
2006,12,13,09,35,25.60
2006,12,13,09,36,25.80
2006,12,13,09,37,22.20
2006,12,13,09,38,26.40
2006,12,13,09,39,31.90
2006,12,13,09,40,36.60
2006,12,13,09,41,25.80
2006,12,13,09,42,31.50
2006,12,13,09,43,23.90
2006,12,13,09,44,31.40
2006,12,13,09,45,32.70
2006,12,13,09,46,25.50
2006,12,13,09,47,34.00
2006,12,13,09,48,25.40
2006,12,13,09,49,22.70
2006,12,13,09,50,24.80
2006,12,13,09,51,32.60
2006,12,13,09,52,28.90
2006,12,13,09,53,25.30
2006,12,13,09,54,27.60
2006,12,13,09,55,25.60
2006,12,13,09,56,36.80
2006,12,13,09,57,28.70
2006,12,13,09,58,34.20
2006,12,13,09,59,28.50
2006,12,13,10,00,28.70
2006,12,13,10,01,26.00
2006,12,13,10,02,32.80
2006,12,13,10,03,32.40
2006,12,13,10,04,22.40
2006,12,13,10,05,30.40
2006,12,13,10,06,34.40
2006,12,13,10,07,30.00
2006,12,13,10,08,28.90
2006,12,13,10,09,31.10
2006,12,13,10,10,26.40
2006,12,13,10,11,35.70
2006,12,13,10,12,32.80
2006,12,13,10,13,22.40
2006,12,13,10,14,30.40
2006,12,13,10,15,25.80
2006,12,13,10,16,29.80
2006,12,13,10,17,25.90
2006,12,13,10,18,24.30
2006,12,13,10,19,23.60
2006,12,13,10,20,35.00
2006,12,13,10,21,26.10
2006,12,13,10,22,30.00
2006,12,13,10,23,34.50
2006,12,13,10,24,40.20
2006,12,13,10,25,31.30
2006,12,13,10,26,31.10
2006,12,13,10,27,26.50
2006,12,13,10,28,31.80
2006,12,13,10,29,27.60
2006,12,13,10,30,25.20
2006,12,13,10,31,29.20
2006,12,13,10,32,35.80
2006,12,13,10,33,30.10
2006,12,13,10,34,25.70
2006,12,13,10,35,24.30
2006,12,13,10,36,25.30
2006,12,13,10,37,26.80
2006,12,13,10,38,27.30
2006,12,13,10,39,35.20
2006,12,13,10,40,27.40
2006,12,13,10,41,31.30
2006,12,13,10,42,31.40
2006,12,13,10,43,30.90
2006,12,13,10,44,25.30
2006,12,13,10,45,27.00
2006,12,13,10,46,37.90
2006,12,13,10,47,32.20
2006,12,13,10,48,30.60
2006,12,13,10,49,31.30
2006,12,13,10,50,37.80
2006,12,13,10,51,33.00
2006,12,13,10,52,32.10
2006,12,13,10,53,27.40
2006,12,13,10,54,34.90
2006,12,13,10,55,22.50
2006,12,13,10,56,23.20
2006,12,13,10,57,29.70
2006,12,13,10,58,27.80
2006,12,13,10,59,34.20
2006,12,13,11,00,32.30
2006,12,13,11,01,34.50
2006,12,13,11,02,28.10
2006,12,13,11,03,27.80
2006,12,13,11,04,41.00
2006,12,13,11,05,41.80
2006,12,13,11,06,31.10
2006,12,13,11,07,32.40
2006,12,13,11,08,45.00
2006,12,13,11,09,28.60
2006,12,13,11,10,34.20
2006,12,13,11,11,41.10
2006,12,13,11,12,29.70
2006,12,13,11,13,32.30
2006,12,13,11,14,28.60
2006,12,13,11,15,32.70
2006,12,13,11,16,31.80
2006,12,13,11,17,32.90
2006,12,13,11,18,35.60
2006,12,13,11,19,34.10
2006,12,13,11,20,33.50
2006,12,13,11,21,34.50
2006,12,13,11,22,34.10
2006,12,13,11,23,34.60
2006,12,13,11,24,37.30
2006,12,13,11,25,26.70
2006,12,13,11,26,43.60
2006,12,13,11,27,48.70
2006,12,13,11,28,24.90
2006,12,13,11,29,32.10
2006,12,13,11,30,36.10
2006,12,13,11,31,38.90
2006,12,13,11,32,33.90
2006,12,13,11,33,46.70
2006,12,13,11,34,36.50
2006,12,13,11,35,38.00
2006,12,13,11,36,40.00
2006,12,13,11,37,31.10
2006,12,13,11,38,37.00
2006,12,13,11,39,38.50
2006,12,13,11,40,41.60
2006,12,13,11,41,40.30
2006,12,13,11,42,40.40
2006,12,13,11,43,34.70
2006,12,13,11,44,37.70
2006,12,13,11,45,39.70
2006,12,13,11,46,30.80
2006,12,13,11,47,30.10
2006,12,13,11,48,32.20
2006,12,13,11,49,24.10
2006,12,13,11,50,29.50
2006,12,13,11,51,27.00
2006,12,13,11,52,26.00
2006,12,13,11,53,23.30
2006,12,13,11,54,23.00
2006,12,13,11,55,26.40
2006,12,13,11,56,34.60
2006,12,13,11,57,23.90
2006,12,13,11,58,25.00
2006,12,13,11,59,26.60
2006,12,13,12,00,25.20
2006,12,13,12,01,27.30
2006,12,13,12,02,34.60
2006,12,13,12,03,32.90
2006,12,13,12,04,29.00
2006,12,13,12,05,17.80
2006,12,13,12,06,20.20
2006,12,13,12,07,24.40
2006,12,13,12,08,22.00
2006,12,13,12,09,27.30
2006,12,13,12,10,27.20
2006,12,13,12,11,26.00
2006,12,13,12,12,31.90
2006,12,13,12,13,25.40
2006,12,13,12,14,34.70
2006,12,13,12,15,33.80
2006,12,13,12,16,31.40
2006,12,13,12,17,20.90
2006,12,13,12,18,26.30
2006,12,13,12,19,32.90
2006,12,13,12,20,39.40
2006,12,13,12,21,29.20
2006,12,13,12,22,29.90
2006,12,13,12,23,31.80
2006,12,13,12,24,28.80
2006,12,13,12,25,38.90
2006,12,13,12,26,39.20
2006,12,13,12,27,33.20
2006,12,13,12,28,38.60
2006,12,13,12,29,31.50
2006,12,13,12,30,24.80
2006,12,13,12,31,34.40
2006,12,13,12,32,33.10
2006,12,13,12,33,26.20
2006,12,13,12,34,28.70
2006,12,13,12,35,27.10
2006,12,13,12,36,30.80
2006,12,13,12,37,38.70
2006,12,13,12,38,29.10
2006,12,13,12,39,34.00
2006,12,13,12,40,37.50
2006,12,13,12,41,32.30
2006,12,13,12,42,27.10
2006,12,13,12,43,28.50
2006,12,13,12,44,26.10
2006,12,13,12,45,25.70
2006,12,13,12,46,25.80
2006,12,13,12,47,34.10
2006,12,13,12,48,35.50
2006,12,13,12,49,35.50
2006,12,13,12,50,29.30
2006,12,13,12,51,24.90
2006,12,13,12,52,38.40
2006,12,13,12,53,33.20
2006,12,13,12,54,26.40
2006,12,13,12,55,29.20
2006,12,13,12,56,28.10
2006,12,13,12,57,23.00
2006,12,13,12,58,29.00
2006,12,13,12,59,31.70
2006,12,13,13,00,39.00
2006,12,13,13,01,32.30
2006,12,13,13,02,37.20
2006,12,13,13,03,40.50
2006,12,13,13,04,32.80
2006,12,13,13,05,23.70
2006,12,13,13,06,27.80
2006,12,13,13,07,31.90
2006,12,13,13,08,18.50
2006,12,13,13,09,17.40
2006,12,13,13,10,25.50
2006,12,13,13,11,39.40
2006,12,13,13,12,37.90
2006,12,13,13,13,26.60
2006,12,13,13,14,26.50
2006,12,13,13,15,25.00
2006,12,13,13,16,26.10
2006,12,13,13,17,26.60
2006,12,13,13,18,29.50
2006,12,13,13,19,22.30
2006,12,13,13,20,27.60
2006,12,13,13,21,29.10
2006,12,13,13,22,21.50
2006,12,13,13,23,21.60
2006,12,13,13,24,15.00
2006,12,13,13,25,23.40
2006,12,13,13,26,29.20
2006,12,13,13,27,19.10
2006,12,13,13,28,21.30
2006,12,13,13,29,26.30
2006,12,13,13,30,37.70
2006,12,13,13,31,30.30
2006,12,13,13,32,26.60
2006,12,13,13,33,27.10
2006,12,13,13,34,27.30
2006,12,13,13,35,23.10
2006,12,13,13,36,20.80
2006,12,13,13,37,29.10
2006,12,13,13,38,21.90
2006,12,13,13,39,21.60
2006,12,13,13,40,22.60
2006,12,13,13,41,23.10
2006,12,13,13,42,20.70
2006,12,13,13,43,17.40
2006,12,13,13,44,17.90
2006,12,13,13,45,15.10
2006,12,13,13,46,23.40
2006,12,13,13,47,28.30
2006,12,13,13,48,26.20
2006,12,13,13,49,18.50
2006,12,13,13,50,20.70
2006,12,13,13,51,22.20
2006,12,13,13,52,27.80
2006,12,13,13,53,29.20
2006,12,13,13,54,22.10
2006,12,13,13,55,21.90
2006,12,13,13,56,28.90
2006,12,13,13,57,25.80
2006,12,13,13,58,28.00
2006,12,13,13,59,27.70
2006,12,13,14,00,32.80
2006,12,13,14,01,30.20
2006,12,13,14,02,29.40
2006,12,13,14,03,36.30
2006,12,13,14,04,19.40
2006,12,13,14,05,22.00
2006,12,13,14,06,28.00
2006,12,13,14,07,25.30
2006,12,13,14,08,27.10
2006,12,13,14,09,30.10
2006,12,13,14,10,28.50
2006,12,13,14,11,28.40
2006,12,13,14,12,31.90
2006,12,13,14,13,24.60
2006,12,13,14,14,30.40
2006,12,13,14,15,26.60
2006,12,13,14,16,30.20
2006,12,13,14,17,28.90
2006,12,13,14,18,26.10
2006,12,13,14,19,23.80
2006,12,13,14,20,20.00
2006,12,13,14,21,23.40
2006,12,13,14,22,19.80
2006,12,13,14,23,20.20
2006,12,13,14,24,24.10
2006,12,13,14,25,20.40
2006,12,13,14,26,18.50
2006,12,13,14,27,26.90
2006,12,13,14,28,18.30
2006,12,13,14,29,24.00
2006,12,13,14,30,21.60
2006,12,13,14,31,22.90
2006,12,13,14,32,29.30
2006,12,13,14,33,16.10
2006,12,13,14,34,19.30
2006,12,13,14,35,21.40
2006,12,13,14,36,17.40
2006,12,13,14,37,15.80
2006,12,13,14,38,18.30
2006,12,13,14,39,24.30
2006,12,13,14,40,18.60
2006,12,13,14,41,10.60
2006,12,13,14,42,18.50
2006,12,13,14,43,12.40
2006,12,13,14,44,15.20
2006,12,13,14,45,15.90
2006,12,13,14,46,25.50
2006,12,13,14,47,19.30
2006,12,13,14,48,14.00
2006,12,13,14,49,17.30
2006,12,13,14,50,15.80
2006,12,13,14,51,13.90
2006,12,13,14,52,11.80
2006,12,13,14,53,13.10
2006,12,13,14,54,12.20
2006,12,13,14,55,13.90
2006,12,13,14,56,20.70
2006,12,13,14,57,28.10
2006,12,13,14,58,17.10
2006,12,13,14,59,19.40
2006,12,13,15,00,17.10
2006,12,13,15,01,15.90
2006,12,13,15,02,12.80
2006,12,13,15,03,14.10
2006,12,13,15,04,12.10
2006,12,13,15,05,13.00
2006,12,13,15,06,14.90
2006,12,13,15,07,16.60
2006,12,13,15,08,20.80
2006,12,13,15,09,22.80
2006,12,13,15,10,17.90
2006,12,13,15,11,17.80
2006,12,13,15,12,23.20
2006,12,13,15,13,31.30
2006,12,13,15,14,30.50
2006,12,13,15,15,33.70
2006,12,13,15,16,29.10
2006,12,13,15,17,17.30
2006,12,13,15,18,21.00
2006,12,13,15,19,32.90
2006,12,13,15,20,29.60
2006,12,13,15,21,24.30
2006,12,13,15,22,18.20
2006,12,13,15,23,18.90
2006,12,13,15,24,22.10
2006,12,13,15,25,22.80
2006,12,13,15,26,17.20
2006,12,13,15,27,17.20
2006,12,13,15,28,12.70
2006,12,13,15,29,15.10
2006,12,13,15,30,14.60
2006,12,13,15,31,14.10
2006,12,13,15,32,13.70
2006,12,13,15,33,21.20
2006,12,13,15,34,19.10
2006,12,13,15,35,17.40
2006,12,13,15,36,20.20
2006,12,13,15,37,18.40
2006,12,13,15,38,17.70
2006,12,13,15,39,20.20
2006,12,13,15,40,14.60
2006,12,13,15,41,18.30
2006,12,13,15,42,21.20
2006,12,13,15,43,19.60
2006,12,13,15,44,21.20
2006,12,13,15,45,17.30
2006,12,13,15,46,15.00
2006,12,13,15,47,13.80
2006,12,13,15,48,21.00
2006,12,13,15,49,19.60
2006,12,13,15,50,19.80
2006,12,13,15,51,21.30
2006,12,13,15,52,17.00
2006,12,13,15,53,16.50
2006,12,13,15,54,13.40
2006,12,13,15,55,14.50
2006,12,13,15,56,19.70
2006,12,13,15,57,24.30
2006,12,13,15,58,16.20
2006,12,13,15,59,12.90
2006,12,13,16,00,16.30
2006,12,13,16,01,16.70
2006,12,13,16,02,13.60
2006,12,13,16,03,7.50
2006,12,13,16,04,9.30
2006,12,13,16,05,17.70
2006,12,13,16,06,14.40
2006,12,13,16,07,10.80
2006,12,13,16,08,13.50
2006,12,13,16,09,15.50
2006,12,13,16,10,16.20
2006,12,13,16,11,14.80
2006,12,13,16,12,7.50
2006,12,13,16,13,10.30
2006,12,13,16,14,10.90
2006,12,13,16,15,10.30
2006,12,13,16,16,9.70
2006,12,13,16,17,8.10
2006,12,13,16,18,12.30
2006,12,13,16,19,8.80
2006,12,13,16,20,5.40
2006,12,13,16,21,3.60
2006,12,13,16,22,5.10
2006,12,13,16,23,6.40
2006,12,13,16,24,6.40
2006,12,13,16,25,6.90
2006,12,13,16,26,8.90
2006,12,13,16,27,8.40
2006,12,13,16,28,6.70
2006,12,13,16,29,8.30
2006,12,13,16,30,6.70
2006,12,13,16,31,4.60
2006,12,13,16,32,4.80
2006,12,13,16,33,5.40
2006,12,13,16,34,6.30
2006,12,13,16,35,10.70
2006,12,13,16,36,10.80
2006,12,13,16,37,6.50
2006,12,13,16,38,14.00
2006,12,13,16,39,11.10
2006,12,13,16,40,9.90
2006,12,13,16,41,9.80
2006,12,13,16,42,8.90
2006,12,13,16,43,10.40
2006,12,13,16,44,10.80
2006,12,13,16,45,9.30
2006,12,13,16,46,7.00
2006,12,13,16,47,8.00
2006,12,13,16,48,8.10
2006,12,13,16,49,5.40
2006,12,13,16,50,10.00
2006,12,13,16,51,9.60
2006,12,13,16,52,4.80
2006,12,13,16,53,6.40
2006,12,13,16,54,12.50
2006,12,13,16,55,11.00
2006,12,13,16,56,10.50
2006,12,13,16,57,10.20
2006,12,13,16,58,9.30
2006,12,13,16,59,12.90
2006,12,13,17,00,13.50
2006,12,13,17,01,21.50
2006,12,13,17,02,24.40
2006,12,13,17,03,22.90
2006,12,13,17,04,27.90
2006,12,13,17,05,24.90
2006,12,13,17,06,17.40
2006,12,13,17,07,18.30
2006,12,13,17,08,13.30
2006,12,13,17,09,16.60
2006,12,13,17,10,15.40
2006,12,13,17,11,15.40
2006,12,13,17,12,24.00
2006,12,13,17,13,29.80
2006,12,13,17,14,33.70
2006,12,13,17,15,33.30
2006,12,13,17,16,22.00
2006,12,13,17,17,17.00
2006,12,13,17,18,20.80
2006,12,13,17,19,23.80
2006,12,13,17,20,21.20
2006,12,13,17,21,21.40
2006,12,13,17,22,21.40
2006,12,13,17,23,17.10
2006,12,13,17,24,17.10